SHIJIAN-30B (SJ-30B)

Last updated on Fri Dec 19 2025 00:02:05 GMT+0000 (Coordinated Universal Time)

1 66546U 25266B 25352.75890586 .00010860 00000+0 57986-3 0 9995 2 66546 51.7981 304.6728 0010759 20.9666 339.1749 15.15565364 4495
UTC large
Height (km)
Speed (km/s)
/
Latitude / Longitude
Inclination (degrees)
Orbital Period (minutes)
Azimuth
Elevation
Range (km)
Doppler Factor

Next 0 passes for location: London (51.5072 / 0.1276)

Sorry there are no passes over London.